EW6694 Weather Reports


Display with metric or nautical units.
time (UTC)temp
F
wind
direction
speed
MPH
gust
MPH
rain 1hr
in
rain 24hr
in
rain mn
in
humidity
%
barometer
mb
20260503234256 44 158 2.0 6.0 0.00 0.00 0.00 77 1003.8
20260503234027 44 209 2.0 9.0 0.00 0.00 0.00 78 1003.8
20260503233252 44 157 2.0 9.0 0.00 0.00 0.00 78 1003.8
20260503233022 44 212 4.0 9.0 0.00 0.00 0.00 78 1003.7
20260503232251 44 184 4.0 9.0 0.00 0.00 0.00 78 1003.8
20260503231750 44 210 5.0 6.0 0.00 0.00 0.00 79 1003.8
20260503231522 44 158 1.0 6.0 0.00 0.00 0.00 80 1003.9
20260503230752 43 188 5.0 9.0 0.00 0.00 0.00 79 1004.0
20260503230250 43 164 2.0 9.0 0.00 0.00 0.00 80 1004.0
20260503225748 43 167 2.0 9.0 0.00 0.00 0.00 80 1004.1
20260503225248 43 254 4.0 11.0 0.00 0.00 0.00 80 1004.0
20260503224745 43 198 4.0 12.0 0.00 0.00 0.00 80 1004.0
20260503224245 43 175 4.0 12.0 0.00 0.00 0.00 81 1004.2
20260503223744 42 187 6.0 12.0 0.00 0.00 0.00 80 1004.1
20260503223243 42 180 5.0 10.0 0.00 0.00 0.00 81 1004.1
20260503222743 42 195 7.0 10.0 0.00 0.00 0.00 81 1004.3
20260503222243 42 158 5.0 10.0 0.00 0.00 0.00 81 1004.5
20260503221741 42 205 4.0 10.0 0.00 0.00 0.00 82 1004.5
20260503221239 42 191 6.0 10.0 0.00 0.00 0.00 82 1004.6
20260503220740 42 216 2.0 11.0 0.00 0.00 0.00 82 1004.8
20260503220239 42 229 6.0 13.0 0.00 0.00 0.00 82 1004.8
20260503215741 42 217 3.0 13.0 0.00 0.00 0.00 82 1004.8
20260503215244 42 202 6.0 12.0 0.00 0.00 0.00 82 1004.9
20260503215237 42 213 5.0 13.0 0.00 0.00 0.00 82 1004.9
20260503214235 42 198 5.0 11.0 0.00 0.00 0.00 81 1004.8
20260503213735 42 199 6.0 11.0 0.00 0.00 0.00 81 1004.8
20260503213234 42 243 2.0 10.0 0.00 0.00 0.00 81 1004.8
20260503212732 42 178 4.0 10.0 0.00 0.00 0.00 81 1004.9
20260503212232 41 164 8.0 10.0 0.00 0.00 0.00 81 1005.0
20260503211729 42 180 5.0 12.0 0.00 0.00 0.00 81 1005.1
20260503211501 42 237 7.0 13.0 0.00 0.00 0.00 81 1005.1
20260503210959 42 220 2.0 13.0 0.00 0.00 0.00 80 1005.1
20260503210227 42 191 5.0 11.0 0.00 0.00 0.00 80 1005.1
20260503205726 42 216 6.0 11.0 0.00 0.00 0.00 80 1005.1
20260503205225 42 230 5.0 13.0 0.00 0.00 0.00 80 1005.2
20260503204725 42 184 7.0 13.0 0.00 0.00 0.00 79 1005.2
20260503204459 42 217 7.0 14.0 0.00 0.00 0.00 79 1005.3
20260503203955 42 232 8.0 14.0 0.00 0.00 0.00 80 1005.3
20260503203223 42 281 10.0 16.0 0.00 0.00 0.00 79 1005.4
20260503202720 42 251 6.0 16.0 0.00 0.00 0.00 78 1005.5
20260503202220 43 250 8.0 15.0 0.00 0.00 0.00 77 1005.5
20260503201719 43 261 7.0 15.0 0.00 0.00 0.00 76 1005.5
20260503201449 43 192 8.0 15.0 0.00 0.00 0.00 74 1005.5
20260503200718 44 229 5.0 15.0 0.00 0.00 0.00 73 1005.6
20260503200216 44 236 8.0 15.0 0.00 0.00 0.00 71 1005.6
20260503195717 44 216 10.0 15.0 0.00 0.00 0.00 70 1005.7
20260503195217 45 243 4.0 15.0 0.00 0.00 0.00 66 1005.7
20260503194947 46 175 3.0 14.0 0.00 0.00 0.00 64 1005.7
20260503194215 46 262 4.0 16.0 0.00 0.00 0.00 62 1005.6
20260503193713 46 272 5.0 16.0 0.00 0.00 0.00 59 1005.6
20260503193213 47 241 11.0 16.0 0.00 0.00 0.00 57 1005.5
20260503192715 47 192 9.0 15.0 0.00 0.00 0.00 54 1005.5
20260503192212 48 279 8.0 15.0 0.00 0.00 0.00 52 1005.5
20260503191711 48 172 5.0 15.0 0.00 0.00 0.00 50 1005.5
20260503191210 48 220 6.0 15.0 0.00 0.00 0.00 50 1005.5
20260503190208 48 150 6.0 21.0 0.00 0.00 0.00 49 1005.6
20260503185706 48 189 9.0 21.0 0.00 0.00 0.00 48 1005.7
20260503185206 49 262 10.0 20.0 0.00 0.00 0.00 47 1005.7
20260503184705 49 156 11.0 19.0 0.00 0.00 0.00 44 1005.7
20260503184205 50 237 6.0 19.0 0.00 0.00 0.00 43 1005.8
20260503183710 49 239 11.0 20.0 0.00 0.00 0.00 42 1005.7
20260503183703 49 191 6.0 20.0 0.00 0.00 0.00 43 1005.7
20260503182934 50 226 9.0 18.0 0.00 0.00 0.00 42 1005.7
20260503182202 50 255 11.0 17.0 0.00 0.00 0.00 42 1005.7
20260503181705 50 244 9.0 16.0 0.00 0.00 0.00 41 1005.8
20260503181201 51 267 5.0 19.0 0.00 0.00 0.00 39 1005.8
20260503180930 51 230 4.0 19.0 0.00 0.00 0.00 39 1005.8
20260503180200 51 203 11.0 18.0 0.00 0.00 0.00 38 1005.8
20260503175658 51 227 10.0 18.0 0.00 0.00 0.00 38 1005.8
20260503175429 51 199 13.0 18.0 0.00 0.00 0.00 38 1005.8
20260503174657 52 174 11.0 20.0 0.00 0.00 0.00 38 1005.8
20260503174157 52 237 9.0 20.0 0.00 0.00 0.00 38 1005.9
20260503173655 52 223 10.0 22.0 0.00 0.00 0.00 36 1005.9
20260503173426 53 239 11.0 22.0 0.00 0.00 0.00 37 1005.9
20260503172655 53 209 9.0 20.0 0.00 0.00 0.00 38 1005.9
20260503172154 53 164 7.0 18.0 0.00 0.00 0.00 38 1006.0
20260503171652 52 220 8.0 17.0 0.00 0.00 0.00 37 1006.1
20260503171153 54 205 2.0 13.0 0.00 0.00 0.00 36 1006.2
20260503170654 53 130 8.0 17.0 0.00 0.00 0.00 38 1006.4
20260503170151 52 274 8.0 18.0 0.00 0.00 0.00 39 1006.5
20260503160135 51 272 5.0 15.0 0.00 0.00 0.00 41 1007.3
20260503150623 49 261 4.0 7.0 0.00 0.00 0.00 39 1008.2
20260503150122 49 219 5.0 9.0 0.00 0.00 0.00 39 1008.3
20260503131045 41 299 4.0 9.0 0.00 0.00 0.00 52 1009.6
20260503130530 41 255 0.0 9.0 0.00 0.00 0.00 54 1009.6
20260503110454 31 226 0.0 0.0 0.00 0.00 0.00 81 1009.9
20260503090440 31 251 2.0 6.0 0.00 0.00 0.00 74 1010.3
20260503081615 32 251 4.0 7.0 0.00 0.00 0.00 72 1010.4
20260503081112 31 254 3.0 5.0 0.00 0.00 0.00 72 1010.4
20260503080615 31 261 3.0 5.0 0.00 0.00 0.00 72 1010.4
20260503080112 31 234 3.0 5.0 0.00 0.00 0.00 72 1010.4
20260503072552 33 272 4.0 6.0 0.00 0.00 0.00 69 1010.3
20260503072052 33 254 4.0 6.0 0.00 0.00 0.00 69 1010.3
20260503071548 33 255 4.0 5.0 0.00 0.00 0.00 69 1010.3
20260503071318 33 274 2.0 6.0 0.00 0.00 0.00 68 1010.3
20260503070548 34 258 3.0 6.0 0.00 0.00 0.00 67 1010.3
20260503055034 35 229 5.0 8.0 0.00 0.00 0.00 68 1010.5
20260503054535 35 244 4.0 8.0 0.00 0.00 0.00 68 1010.5
20260503054032 35 271 5.0 8.0 0.00 0.00 0.00 67 1010.5
20260503053805 35 274 4.0 7.0 0.00 0.00 0.00 68 1010.5
20260503053031 35 267 4.0 7.0 0.00 0.00 0.00 68 1010.5
20260503052531 35 270 4.0 8.0 0.00 0.00 0.00 68 1010.5
20260503052031 35 289 4.0 8.0 0.00 0.00 0.00 69 1010.5
20260503051802 34 286 6.0 8.0 0.00 0.00 0.00 70 1010.6
20260503051028 33 288 4.0 5.0 0.00 0.00 0.00 72 1010.6
20260503050529 33 268 3.0 4.0 0.00 0.00 0.00 73 1010.6
20260503050029 33 257 0.0 2.0 0.00 0.00 0.00 73 1010.8
20260503045018 33 247 0.0 2.0 0.00 0.00 0.00 73 1010.8
20260503044747 32 255 1.0 2.0 0.00 0.00 0.00 74 1010.8
20260503044013 32 232 0.0 0.0 0.00 0.00 0.00 74 1010.8
20260503043515 32 232 0.0 0.0 0.00 0.00 0.00 73 1010.8
20260503043005 32 232 0.0 0.0 0.00 0.00 0.00 74 1010.8
20260503042502 32 232 0.0 0.0 0.00 0.00 0.00 73 1010.8
20260503042002 32 232 0.0 0.0 0.00 0.00 0.00 73 1010.8
20260503041842 32 232 0.0 0.0 0.00 0.00 0.00 73 1010.8
20260503041733 32 232 0.0 0.0 0.00 0.00 0.00 73 1010.8
20260503040452 32 232 0.0 0.0 0.00 0.00 0.00 71 1010.8
20260503035424 33 232 0.0 0.0 0.00 0.00 0.00 70 1010.9
20260503034907 33 232 0.0 0.0 0.00 0.00 0.00 70 1010.9
20260503034404 33 232 0.0 0.0 0.00 0.00 0.00 70 1010.9
20260503033859 33 232 0.0 0.0 0.00 0.00 0.00 70 1011.0
20260503033357 34 232 0.0 0.0 0.00 0.00 0.00 69 1011.0
20260503032852 34 232 0.0 0.0 0.00 0.00 0.00 68 1010.9
20260503032340 34 232 0.0 0.0 0.00 0.00 0.00 69 1011.0
20260503031810 34 232 0.0 0.0 0.00 0.00 0.00 70 1011.0
20260503031302 33 232 0.0 0.0 0.00 0.00 0.00 70 1011.0
20260503031015 34 232 0.0 0.0 0.00 0.00 0.00 70 1011.0
20260503030240 34 232 0.0 0.0 0.00 0.00 0.00 70 1011.0
20260503025951 34 232 0.0 0.0 0.00 0.00 0.00 69 1011.2
20260503025828 34 232 0.0 0.0 0.00 0.00 0.00 69 1011.1
20260503024708 34 232 0.0 0.0 0.00 0.00 0.00 67 1011.2
20260503024440 34 232 0.0 0.0 0.00 0.00 0.00 65 1011.2
20260503023701 35 232 0.0 0.0 0.00 0.00 0.00 65 1011.2
20260503023203 35 232 0.0 0.0 0.00 0.00 0.00 65 1011.3
20260503022700 35 232 0.0 0.0 0.00 0.00 0.00 64 1011.3
20260503022154 36 232 0.0 0.0 0.00 0.00 0.00 63 1011.4
20260503021700 36 232 0.0 0.0 0.00 0.00 0.00 62 1011.4
20260503021653 36 232 0.0 0.0 0.00 0.00 0.00 62 1011.4
20260503020643 37 232 0.0 0.0 0.00 0.00 0.00 61 1011.5
20260503020140 38 232 0.0 0.0 0.00 0.00 0.00 60 1011.5
20260503015631 39 232 0.0 2.0 0.00 0.00 0.00 57 1011.4
20260503015121 40 232 0.0 4.0 0.00 0.00 0.00 55 1011.4
20260503014617 40 232 0.0 5.0 0.00 0.00 0.00 54 1011.5
20260503014345 40 223 2.0 5.0 0.00 0.00 0.00 53 1011.5
20260503013608 41 258 3.0 5.0 0.00 0.00 0.00 52 1011.5
20260503013107 41 248 2.0 5.0 0.00 0.00 0.00 52 1011.5
20260503012839 41 251 3.0 5.0 0.00 0.00 0.00 51 1011.5
20260503012339 42 229 3.0 6.0 0.00 0.00 0.00 51 1011.4
20260503011603 42 227 2.0 6.0 0.00 0.00 0.00 50 1011.4
20260503011104 42 216 3.0 6.0 0.00 0.00 0.00 50 1011.4
20260503010835 43 202 0.0 5.0 0.00 0.00 0.00 50 1011.4
20260503010105 43 268 2.0 6.0 0.00 0.00 0.00 49 1011.4
20260503005604 43 253 4.0 7.0 0.00 0.00 0.00 49 1011.4
20260503005100 43 265 5.0 9.0 0.00 0.00 0.00 49 1011.3
20260503004601 44 233 5.0 9.0 0.00 0.00 0.00 49 1011.3
20260503004058 44 230 6.0 9.0 0.00 0.00 0.00 48 1011.3
20260503003605 44 282 7.0 11.0 0.00 0.00 0.00 47 1011.3
20260503003557 44 237 6.0 11.0 0.00 0.00 0.00 48 1011.3
20260503002557 44 246 6.0 11.0 0.00 0.00 0.00 47 1011.2
20260503002052 45 254 5.0 9.0 0.00 0.00 0.00 48 1011.2
20260503001837 45 265 5.0 9.0 0.00 0.00 0.00 47 1011.2
20260503001051 45 278 3.0 10.0 0.00 0.00 0.00 48 1011.2
20260503000621 45 243 6.0 11.0 0.00 0.00 0.00 49 1011.2
20260503000603 45 227 5.0 11.0 0.00 0.00 0.00 48 1011.2
20260502235549 45 243 6.0 10.0 0.00 0.00 0.00 48 1011.3
20260502235047 46 271 5.0 11.0 0.00 0.00 0.00 49 1011.3
20260502234546 45 241 5.0 11.0 0.00 0.00 0.00 48 1011.3